RH
46 44 41 36 35 35 34 34 31 28 30 30 31 31 32 32 31 32 31 30 31 32 34 35 35 43 49 74 84 88 87 85 74 59 54 46 38 33 25 24 28 42 95
50 49 43 41 39 35 34 31 30 31 33 34 35 33 34 35 36 37 36 36 32 32 34 36 37 39 44 59 71 80 84 85 79 64 61 53 43 41 33 27 25 39 71
54 49 44 43 39 34 30 30 31 32 34 35 33 33 34 35 37 39 39 39 40 35 34 37 38 39 42 48 56 68 78 82 81 73 63 61 53 47 40 32 26 40 69
55 49 46 42 35 30 31 32 32 33 37 34 33 33 34 35 41 37 37 37 38 40 38 38 38 40 42 46 49 60 70 82 82 78 73 65 60 56 45 37 29 40 58
54 50 43 35 31 30 32 31 32 34 37 36 36 37 34 39 39 35 32 34 34 35 41 40 40 38 41 45 49 57 65 83 84 82 75 72 67 62 50 44 44 49 66
53 44 37 32 30 31 30 30 33 37 34 31 30 32 27 32 34 31 29 32 33 38 39 38 40 41 39 40 43 50 66 79 88 89 82 77 72 68 55 49 43 64 68
46 39 33 32 31 29 28 30 33 30 27 27 28 30 29 31 30 26 26 28 31 36 38 39 41 40 40 38 40 45 59 75 92 89 85 84 77 74 66 54 48 71 71
40 34 32 31 29 26 27 29 27 26 26 27 28 29 31 32 30 26 26 28 31 32 35 39 40 41 39 40 38 41 54 71 95 95 93 88 87 83 75 59 51 69 69
34 34 32 31 26 23 25 23 26 27 27 27 29 29 35 32 31 27 27 30 32 33 33 37 40 41 39 42 42 40 48 67 94 95 96 94 93 96 86 64 70 74 77
34 33 32 26 23 19 20 26 27 27 27 28 30 31 32 34 32 31 32 32 34 31 32 35 40 42 40 42 45 45 45 62 84 97 96 96 96 94 87 71 74 90 97
35 33 27 23 18 18 22 26 28 29 30 31 32 32 33 33 34 34 33 33 35 34 34 37 37 40 41 43 48 50 49 62 78 97 96 96 97 96 85 78 85 90 95
35 28 22 19 18 20 20 27 27 32 34 34 35 35 36 36 36 36 34 32 33 36 37 37 40 42 46 48 50 52 52 61 74 96 97 97 97 95 96 96 95 95 94
27 21 21 20 21 22 23 26 28 30 37 38 38 38 38 38 37 36 33 32 33 35 39 41 44 48 51 50 53 55 54 59 69 83 97 97 97 95 92 96 97 98 99
18 15 14 21 20 24 26 29 32 33 34 36 38 36 37 37 38 34 32 32 34 36 40 42 47 50 54 54 54 57 56 58 69 78 89 97 97 97 98 97 96 97 97
17 15 19 23 24 26 28 32 33 37 36 37 37 37 38 36 35 37 38 38 39 41 42 49 50 51 55 59 59 61 57 56 66 77 84 92 97 97 95 96 97 96 97
22 22 22 25 26 28 31 34 39 38 38 37 37 38 37 36 35 36 39 39 43 46 49 51 53 54 56 62 62 64 63 58 60 71 81 89 94 97 97 96 95 96 97
16 16 24 26 28 30 33 35 37 40 42 45 42 37 36 35 35 38 40 40 45 47 52 55 57 58 59 62 66 68 66 63 62 67 73 84 88 90 97 97 91 90 88
16 16 25 27 30 32 35 37 43 49 48 48 45 40 35 35 33 39 41 42 46 50 54 57 58 60 61 62 66 70 73 69 65 65 68 76 84 84 86 93 92 86 83
20 24 25 29 31 34 38 44 52 51 50 48 46 44 36 33 34 40 41 43 47 50 55 59 61 62 62 63 64 67 72 72 68 65 65 68 75 81 77 82 84 89 88
24 20 22 32 35 40 47 53 55 55 52 50 48 46 38 34 37 38 40 43 47 51 56 60 62 64 64 64 64 65 69 71 68 66 64 63 67 70 77 75 75 77 84
28 30 29 35 40 46 52 57 60 57 54 53 50 48 41 38 42 40 42 43 46 49 54 59 63 66 66 66 65 66 67 70 72 68 64 60 57 59 65 73 73 71 71
31 33 35 39 44 55 58 59 62 60 58 55 52 49 46 45 43 41 41 43 45 48 51 55 63 67 68 68 67 67 67 68 70 71 68 65 62 59 58 58 63 65 64
34 35 39 45 53 58 65 66 64 62 60 57 55 52 48 47 45 43 43 43 43 44 47 51 57 66 70 71 70 69 68 68 69 70 71 68 65 61 58 56 54 54 57
36 39 43 52 61 59 67 68 65 64 63 60 57 54 50 49 46 45 44 45 45 43 43 48 52 58 67 71 72 72 71 70 70 71 72 73 70 67 62 59 57 54 52
42 44 48 59 65 69 71 67 67 67 66 62 60 56 53 52 48 46 46 47 48 47 45 45 49 52 57 68 73 73 73 73 73 72 73 74 74 71 67 64 60 57 54
44 47 50 60 67 68 62 65 68 70 68 65 63 59 56 54 48 46 48 50 51 50 50 49 48 51 52 56 69 74 74 74 73 74 74 74 74 74 72 68 63 60 58